G4WLC-1 Weather Reports


time (UTC)temp
C
wind
direction
speed
KPH
gust
KPH
rain 1hr
cm
rain 24hr
cm
rain mn
cm
humidity
%
barometer
mb
20260507152758 12 268 4.8 12.9 0.00 0.00 0.00 77 1015.0
20260507152258 12 131 3.2 14.5 0.00 0.00 0.00 75 1014.8
20260507151758 12 146 1.6 6.4 0.00 0.00 0.00 75 1014.8
20260507151258 13 141 0.0 6.4 0.00 0.00 0.00 72 1014.8
20260507150758 13 152 0.0 3.2 0.00 0.00 0.00 72 1014.7
20260507150258 13 132 0.0 3.2 0.00 0.00 0.00 73 1014.8
20260507145758 13 233 0.0 1.6 0.00 0.00 0.00 75 1014.7
20260507145258 13 264 0.0 1.6 0.00 0.00 0.00 73 1014.8
20260507144758 13 238 0.0 0.0 0.00 0.00 0.00 72 1014.7
20260507144258 13 248 0.0 1.6 0.00 0.00 0.00 73 1014.7
20260507143758 13 240 0.0 1.6 0.00 0.00 0.00 72 1014.8
20260507143258 13 146 0.0 1.6 0.00 0.00 0.00 73 1014.8
20260507142758 12 114 0.0 3.2 0.00 0.00 0.00 76 1014.9
20260507142258 12 240 0.0 1.6 0.00 0.00 0.00 74 1014.9
20260507141758 12 259 0.0 1.6 0.00 0.00 0.00 76 1015.0
20260507141258 12 238 0.0 1.6 0.00 0.00 0.00 75 1015.0
20260507140758 12 250 0.0 4.8 0.00 0.00 0.00 74 1015.0
20260507140258 12 237 0.0 4.8 0.00 0.00 0.00 75 1015.1
20260507135758 12 121 0.0 6.4 0.00 0.00 0.00 74 1015.0
20260507135258 12 149 0.0 3.2 0.00 0.00 0.00 72 1015.1
20260507134758 12 152 1.6 4.8 0.00 0.00 0.00 73 1015.1
20260507134258 12 144 0.0 4.8 0.00 0.00 0.00 71 1015.2
20260507133758 13 143 0.0 3.2 0.00 0.00 0.00 72 1015.1
20260507133258 13 158 0.0 6.4 0.00 0.00 0.00 71 1015.2
20260507132758 13 252 0.0 4.8 0.00 0.00 0.00 72 1015.2
20260507132258 13 204 0.0 4.8 0.00 0.00 0.00 71 1015.3
20260507131758 13 141 0.0 4.8 0.00 0.00 0.00 75 1015.3
20260507131258 13 94 0.0 4.8 0.00 0.00 0.00 72 1015.3
20260507130758 12 158 0.0 6.4 0.00 0.00 0.00 70 1015.3
20260507130258 12 146 0.0 3.2 0.00 0.00 0.00 73 1015.3
20260507125758 12 135 0.0 4.8 0.00 0.00 0.00 73 1015.3
20260507125258 12 134 0.0 3.2 0.00 0.00 0.00 73 1015.3
20260507124758 12 146 0.0 0.0 0.00 0.00 0.00 71 1015.4
20260507124258 13 148 0.0 3.2 0.00 0.00 0.00 70 1015.3
20260507123758 13 139 0.0 1.6 0.00 0.00 0.00 70 1015.4
20260507123258 13 152 0.0 6.4 0.00 0.00 0.00 67 1015.5
20260507122758 13 94 0.0 1.6 0.00 0.00 0.00 67 1015.3
20260507122258 14 143 0.0 4.8 0.00 0.00 0.00 67 1015.5
20260507121758 14 150 0.0 3.2 0.00 0.00 0.00 69 1015.5
20260507121258 14 136 0.0 3.2 0.00 0.00 0.00 69 1015.5
20260507120758 14 105 0.0 4.8 0.00 0.00 0.00 67 1015.7
20260507120258 14 86 1.6 8.0 0.00 0.00 0.00 66 1015.6
20260507115758 14 204 3.2 8.0 0.00 0.00 0.00 66 1015.6
20260507115258 15 136 3.2 9.7 0.00 0.00 0.00 65 1015.7
20260507114758 15 132 1.6 8.0 0.00 0.00 0.00 67 1015.7
20260507114258 15 112 1.6 4.8 0.00 0.00 0.00 64 1015.7
20260507113758 15 192 1.6 8.0 0.00 0.00 0.00 66 1015.6
20260507113258 15 155 1.6 9.7 0.00 0.00 0.00 66 1015.6
20260507112758 15 225 1.6 9.7 0.00 0.00 0.00 70 1015.6
20260507112258 15 229 0.0 6.4 0.00 0.00 0.00 68 1015.6
20260507111758 14 81 1.6 4.8 0.00 0.00 0.00 70 1015.5
20260507111258 14 262 3.2 11.3 0.00 0.00 0.00 69 1015.7
20260507110758 14 146 3.2 14.5 0.00 0.00 0.00 67 1015.8
20260507110258 14 145 1.6 11.3 0.00 0.00 0.00 71 1015.7
20260507105758 14 215 1.6 9.7 0.00 0.00 0.00 69 1015.7
20260507105258 14 254 0.0 4.8 0.00 0.00 0.00 72 1015.9
20260507104758 14 187 1.6 6.4 0.00 0.00 0.00 71 1015.9
20260507104258 14 142 1.6 11.3 0.00 0.00 0.00 75 1016.0
20260507103758 14 132 1.6 9.7 0.00 0.00 0.00 73 1016.0
20260507103259 13 273 0.0 6.4 0.00 0.00 0.00 74 1015.8
20260507102758 13 335 1.6 1.6 0.00 0.00 0.00 75 1015.9
20260507102258 13 266 1.6 4.8 0.00 0.00 0.00 75 1015.9
20260507101758 13 184 1.6 6.4 0.00 0.00 0.00 76 1015.9
20260507101258 12 91 1.6 9.7 0.00 0.00 0.00 77 1015.8
20260507100758 12 97 0.0 4.8 0.00 0.00 0.00 78 1015.9
20260507100258 12 112 0.0 3.2 0.00 0.00 0.00 77 1015.7
20260507095758 12 106 1.6 3.2 0.00 0.00 0.00 79 1015.7
20260507095258 11 48 1.6 4.8 0.00 0.00 0.00 79 1015.9
20260507094758 11 243 0.0 4.8 0.00 0.00 0.00 79 1015.9
20260507094258 11 37 0.0 1.6 0.00 0.00 0.00 80 1016.0
20260507093758 11 289 0.0 3.2 0.00 0.00 0.00 80 1015.9
20260507093258 11 114 0.0 1.6 0.00 0.00 0.00 82 1015.9
20260507092758 10 46 0.0 4.8 0.00 0.00 0.00 81 1015.9
20260507092258 10 338 0.0 1.6 0.00 0.00 0.00 83 1015.9
20260507091758 10 267 0.0 3.2 0.00 0.00 0.00 83 1016.0
20260507091258 10 359 0.0 1.6 0.00 0.00 0.00 83 1016.0
20260507090758 9 124 0.0 1.6 0.00 0.00 0.00 84 1015.9
20260507090258 9 2 0.0 1.6 0.00 0.00 0.00 84 1015.9
20260507085758 9 43 0.0 1.6 0.00 0.00 0.00 84 1016.0
20260507085259 8 37 0.0 1.6 0.00 0.00 0.00 85 1016.1
20260507084759 8 309 0.0 1.6 0.00 0.00 0.00 85 1016.1
20260507084259 8 103 0.0 3.2 0.00 0.00 0.00 85 1016.0
20260507083759 8 67 0.0 1.6 0.00 0.00 0.00 85 1016.0
20260507083259 8 103 0.0 1.6 0.00 0.00 0.00 85 1016.1
20260507082759 8 97 0.0 1.6 0.00 0.00 0.00 85 1016.1
20260507082259 8 278 0.0 1.6 0.00 0.00 0.00 86 1016.1
20260507081759 8 240 0.0 0.0 0.00 0.00 0.00 87 1016.1
20260507081259 8 240 0.0 1.6 0.00 0.00 0.00 87 1015.9
20260507080759 7 276 0.0 1.6 0.00 0.00 0.00 87 1016.1
20260507080259 7 319 0.0 1.6 0.00 0.00 0.00 87 1016.0
20260507075759 7 84 0.0 1.6 0.00 0.00 0.00 87 1016.0
20260507075259 7 277 0.0 1.6 0.00 0.00 0.00 88 1016.0
20260507074759 7 333 0.0 1.6 0.00 0.00 0.00 88 1016.0
20260507074259 7 101 0.0 1.6 0.00 0.00 0.00 88 1015.9
20260507073759 7 240 0.0 0.0 0.00 0.00 0.00 88 1015.9
20260507073259 7 126 0.0 1.6 0.00 0.00 0.00 88 1015.7
20260507072759 7 58 0.0 1.6 0.00 0.00 0.00 88 1015.8
20260507072259 7 41 0.0 1.6 0.00 0.00 0.00 88 1015.9
20260507071759 7 45 0.0 0.0 0.00 0.00 0.00 89 1015.8
20260507071259 7 44 0.0 0.0 0.00 0.00 0.00 89 1015.6
20260507070759 6 46 0.0 1.6 0.00 0.00 0.00 89 1015.7
20260507070259 6 32 0.0 1.6 0.00 0.00 0.00 89 1015.6
20260507065759 6 248 0.0 0.0 0.00 0.00 0.00 89 1015.5
20260507065259 6 315 0.0 0.0 0.00 0.00 0.00 89 1015.6
20260507064759 6 309 0.0 0.0 0.00 0.00 0.00 89 1015.5
20260507064259 6 185 0.0 0.0 0.00 0.00 0.00 89 1015.6
20260507063759 6 185 0.0 3.2 0.00 0.00 0.00 89 1015.6
20260507063259 6 242 0.0 1.6 0.00 0.00 0.00 89 1015.5
20260507062759 6 32 0.0 1.6 0.00 0.00 0.00 89 1015.6
20260507062259 6 282 0.0 0.0 0.00 0.00 0.00 89 1015.6
20260507061759 6 243 0.0 0.0 0.00 0.00 0.00 89 1015.5
20260507061259 6 299 0.0 1.6 0.00 0.00 0.00 89 1015.5
20260507060759 6 270 0.0 0.0 0.00 0.00 0.00 89 1015.5
20260507060259 6 354 0.0 1.6 0.00 0.00 0.00 89 1015.5
20260507055759 6 224 0.0 0.0 0.00 0.00 0.00 89 1015.4
20260507055259 6 323 0.0 1.6 0.00 0.00 0.00 89 1015.5
20260507054759 6 9 0.0 1.6 0.00 0.00 0.00 89 1015.4
20260507054259 6 295 0.0 1.6 0.00 0.00 0.00 89 1015.5
20260507053759 6 34 0.0 1.6 0.00 0.00 0.00 89 1015.4
20260507053259 6 23 0.0 0.0 0.00 0.00 0.00 89 1015.4
20260507052759 6 70 0.0 1.6 0.00 0.00 0.00 89 1015.4
20260507052259 6 70 0.0 0.0 0.00 0.00 0.00 89 1015.3
20260507051759 6 70 0.0 0.0 0.00 0.00 0.00 89 1015.4
20260507051259 6 70 0.0 0.0 0.00 0.00 0.00 89 1015.4
20260507050759 6 70 0.0 0.0 0.00 0.00 0.00 89 1015.4
20260507050259 6 70 0.0 0.0 0.00 0.00 0.00 89 1015.4
20260507045759 6 70 0.0 0.0 0.00 0.00 0.00 89 1015.4
20260507045259 6 70 0.0 0.0 0.00 0.00 0.00 89 1015.4
20260507044759 6 82 0.0 0.0 0.00 0.00 0.00 89 1015.3
20260507044259 6 82 0.0 1.6 0.00 0.00 0.00 89 1015.3
20260507043759 6 79 0.0 0.0 0.00 0.00 0.00 89 1015.2
20260507043259 6 79 0.0 0.0 0.00 0.00 0.00 89 1015.1
20260507042759 6 79 0.0 0.0 0.00 0.00 0.00 89 1015.3
20260507042259 6 79 0.0 0.0 0.00 0.00 0.00 89 1015.2
20260507041759 6 79 0.0 0.0 0.00 0.00 0.00 89 1015.2
20260507041259 6 80 0.0 0.0 0.00 0.00 0.00 89 1015.2
20260507040759 6 80 0.0 0.0 0.00 0.00 0.00 89 1015.2
20260507040259 6 80 0.0 0.0 0.00 0.00 0.00 89 1015.2
20260507035759 6 80 0.0 0.0 0.00 0.00 0.00 89 1015.2
20260507035259 6 80 0.0 0.0 0.00 0.00 0.00 89 1015.2
20260507034759 6 80 0.0 0.0 0.00 0.00 0.00 89 1015.2
20260507034259 6 78 0.0 0.0 0.00 0.00 0.00 89 1015.2
20260507033759 6 79 0.0 0.0 0.00 0.00 0.00 89 1015.3
20260507033259 6 79 0.0 0.0 0.00 0.00 0.00 89 1015.2
20260507032759 6 79 0.0 0.0 0.00 0.00 0.00 89 1015.3
20260507032259 6 79 0.0 0.0 0.00 0.00 0.00 89 1015.2
20260507031759 6 79 0.0 1.6 0.00 0.00 0.00 89 1015.2
20260507031259 6 79 0.0 0.0 0.00 0.00 0.00 88 1015.2
20260507030759 6 79 0.0 0.0 0.00 0.00 0.00 88 1015.3
20260507030259 6 79 0.0 0.0 0.00 0.00 0.00 88 1015.1
20260507025759 6 79 0.0 0.0 0.00 0.00 0.00 88 1015.2
20260507025259 6 79 0.0 0.0 0.00 0.00 0.00 88 1015.2
20260507024759 6 80 0.0 0.0 0.00 0.00 0.00 88 1015.2
20260507024259 6 77 0.0 0.0 0.00 0.00 0.00 88 1015.2
20260507023759 6 105 0.0 0.0 0.00 0.00 0.00 88 1015.2
20260507023259 6 105 0.0 0.0 0.00 0.00 0.00 88 1015.2
20260507022759 6 106 0.0 1.6 0.00 0.00 0.00 88 1015.3
20260507022259 6 300 0.0 0.0 0.00 0.00 0.00 88 1015.2
20260507021759 6 300 0.0 0.0 0.00 0.00 0.00 88 1015.2
20260507021259 6 302 0.0 1.6 0.00 0.00 0.00 87 1015.3
20260507020759 6 34 0.0 1.6 0.00 0.00 0.00 87 1015.3
20260507020259 6 38 0.0 0.0 0.00 0.00 0.00 87 1015.2
20260507015759 6 39 0.0 1.6 0.00 0.00 0.00 87 1015.3
20260507015259 6 77 0.0 0.0 0.00 0.00 0.00 87 1015.2
20260507014759 6 77 0.0 0.0 0.00 0.00 0.00 87 1015.2
20260507014259 6 77 0.0 0.0 0.00 0.00 0.00 87 1015.2
20260507013759 6 78 0.0 0.0 0.00 0.00 0.00 87 1015.1
20260507013259 6 245 0.0 0.0 0.00 0.00 0.00 87 1015.1
20260507012759 6 245 0.0 0.0 0.00 0.00 0.00 87 1015.0
20260507012259 6 251 0.0 0.0 0.00 0.00 0.00 87 1015.0
20260507011759 6 276 0.0 0.0 0.00 0.00 0.00 87 1015.0
20260507011259 6 276 0.0 0.0 0.00 0.00 0.00 87 1015.0
20260507010759 6 276 0.0 0.0 0.00 0.00 0.00 87 1014.9
20260507010259 6 276 0.0 0.0 0.00 0.00 0.00 86 1014.9
20260507005759 6 81 0.0 0.0 0.00 0.00 0.00 86 1014.9
20260507005259 6 79 0.0 1.6 0.00 0.00 0.00 86 1014.9
20260507004759 7 8 0.0 1.6 0.00 0.00 0.00 86 1014.8
20260507004259 7 96 0.0 0.0 0.00 0.00 0.00 86 1014.8
20260507003759 7 91 0.0 0.0 0.00 0.00 0.00 86 1015.0
20260507003259 7 91 0.0 0.0 0.00 0.00 0.00 86 1015.0
20260507002800 7 91 0.0 0.0 0.00 0.00 0.00 85 1015.0
20260507002300 7 94 0.0 0.0 0.00 0.00 0.00 85 1015.0
20260507001800 7 91 0.0 0.0 0.00 0.00 0.00 85 1015.0
20260507001300 7 91 0.0 0.0 0.00 0.00 0.00 85 1015.1
20260507000800 7 91 0.0 0.0 0.00 0.00 0.00 85 1015.2
20260507000300 7 91 0.0 1.6 0.00 0.00 0.00 85 1015.2
20260506235800 7 29 0.0 1.6 0.00 0.00 0.00 84 1015.3
20260506235300 7 337 0.0 0.0 0.00 0.00 0.00 84 1015.1
20260506234800 7 27 0.0 0.0 0.00 0.00 0.00 84 1015.1
20260506234300 7 18 0.0 1.6 0.00 0.00 0.00 84 1015.2
20260506233800 7 83 0.0 1.6 0.00 0.00 0.00 84 1015.1
20260506233300 7 78 0.0 1.6 0.00 0.00 0.00 84 1014.9
20260506232800 7 29 0.0 0.0 0.00 0.00 0.00 83 1015.2
20260506232300 7 28 0.0 0.0 0.00 0.00 0.00 83 1015.2
20260506231800 7 27 0.0 0.0 0.00 0.00 0.00 83 1015.2
20260506231300 7 50 0.0 3.2 0.00 0.00 0.00 83 1015.1
20260506230800 7 352 0.0 0.0 0.00 0.00 0.00 83 1015.1
20260506230300 7 314 0.0 0.0 0.00 0.00 0.00 83 1015.2
20260506225800 7 314 0.0 1.6 0.00 0.00 0.00 83 1015.1
20260506225300 7 311 0.0 0.0 0.00 0.00 0.00 83 1015.2
20260506224800 7 311 0.0 0.0 0.00 0.00 0.00 82 1015.2
20260506224300 7 314 0.0 0.0 0.00 0.00 0.00 82 1015.2
20260506223800 7 314 0.0 0.0 0.00 0.00 0.00 82 1015.2
20260506223300 7 16 0.0 0.0 0.00 0.00 0.00 81 1015.1
20260506222800 7 16 0.0 0.0 0.00 0.00 0.00 81 1015.1
20260506222300 8 16 0.0 1.6 0.00 0.00 0.00 81 1015.0
20260506221800 8 341 0.0 0.0 0.00 0.00 0.00 81 1015.0
20260506221300 8 341 0.0 0.0 0.00 0.00 0.00 81 1015.0
20260506220800 8 325 0.0 0.0 0.00 0.00 0.00 81 1015.1
20260506220300 8 226 0.0 1.6 0.00 0.00 0.00 80 1015.1
20260506215800 8 330 0.0 0.0 0.00 0.00 0.00 80 1015.1
20260506215300 8 336 0.0 1.6 0.00 0.00 0.00 79 1015.2
20260506214800 8 297 0.0 1.6 0.00 0.00 0.00 79 1015.0
20260506214300 8 284 0.0 0.0 0.00 0.00 0.00 79 1014.8
20260506213800 8 284 0.0 1.6 0.00 0.00 0.00 79 1014.8
20260506213300 8 121 0.0 0.0 0.00 0.00 0.00 78 1015.1
20260506212800 8 120 0.0 1.6 0.00 0.00 0.00 78 1014.9
20260506212300 8 154 0.0 0.0 0.00 0.00 0.00 78 1014.8
20260506211800 8 153 0.0 0.0 0.00 0.00 0.00 77 1014.9
20260506211300 8 154 0.0 0.0 0.00 0.00 0.00 77 1015.0
20260506210800 8 262 0.0 0.0 0.00 0.00 0.00 76 1014.9
20260506210300 8 137 0.0 0.0 0.00 0.00 0.00 76 1014.7
20260506205800 8 244 0.0 0.0 0.00 0.00 0.00 76 1014.7
20260506205300 8 244 0.0 0.0 0.00 0.00 0.00 76 1014.8
20260506204800 8 244 0.0 0.0 0.00 0.00 0.00 75 1014.7
20260506204300 8 207 0.0 0.0 0.00 0.00 0.00 76 1014.7
20260506203800 8 207 0.0 1.6 0.00 0.00 0.00 75 1014.6
20260506203300 8 207 0.0 0.0 0.00 0.00 0.00 74 1014.5
20260506202800 8 208 0.0 0.0 0.00 0.00 0.00 75 1014.5
20260506202300 8 209 0.0 0.0 0.00 0.00 0.00 74 1014.4
20260506201800 8 209 0.0 0.0 0.00 0.00 0.00 73 1014.4
20260506201300 8 209 0.0 0.0 0.00 0.00 0.00 73 1014.3
20260506200800 8 272 0.0 1.6 0.00 0.00 0.00 72 1014.4
20260506200300 8 353 0.0 1.6 0.00 0.00 0.00 72 1014.2
20260506195800 8 274 0.0 0.0 0.00 0.00 0.00 73 1014.0
20260506195300 8 274 0.0 0.0 0.00 0.00 0.00 73 1014.0
20260506194800 8 274 0.0 0.0 0.00 0.00 0.00 73 1013.9
20260506194300 8 274 0.0 0.0 0.00 0.00 0.00 73 1013.9
20260506193800 8 274 0.0 0.0 0.00 0.00 0.00 72 1014.1
20260506193300 8 274 0.0 0.0 0.00 0.00 0.00 72 1014.0
20260506192800 8 268 0.0 0.0 0.00 0.00 0.00 71 1014.0
20260506192300 9 231 0.0 0.0 0.00 0.00 0.00 72 1014.1
20260506191800 9 231 0.0 0.0 0.00 0.00 0.00 69 1014.1
20260506191300 10 231 0.0 0.0 0.00 0.00 0.00 70 1014.1
20260506190800 10 231 0.0 0.0 0.00 0.00 0.00 69 1014.1
20260506190300 10 231 0.0 0.0 0.00 0.00 0.00 66 1014.0
20260506185800 10 231 0.0 0.0 0.00 0.00 0.00 65 1014.0
20260506185300 11 231 0.0 0.0 0.00 0.00 0.00 64 1014.0
20260506184800 11 231 0.0 0.0 0.00 0.00 0.00 65 1014.0
20260506184300 11 231 0.0 0.0 0.00 0.00 0.00 66 1014.0
20260506183800 11 231 0.0 0.0 0.00 0.00 0.00 67 1014.1
20260506183300 11 230 0.0 0.0 0.00 0.00 0.00 61 1014.1
20260506182800 12 214 0.0 0.0 0.00 0.00 0.00 65 1014.0
20260506182300 12 214 0.0 1.6 0.00 0.00 0.00 60 1014.0
20260506181800 12 295 0.0 1.6 0.00 0.00 0.00 61 1013.9
20260506181300 12 263 0.0 1.6 0.00 0.00 0.00 63 1013.9
20260506180800 12 229 0.0 3.2 0.00 0.00 0.00 59 1013.8
20260506180300 12 129 0.0 1.6 0.00 0.00 0.00 62 1013.8
20260506175800 12 39 0.0 3.2 0.00 0.00 0.00 60 1013.7
20260506175300 12 298 0.0 1.6 0.00 0.00 0.00 59 1013.8
20260506174800 12 352 0.0 1.6 0.00 0.00 0.00 59 1013.8
20260506174300 12 203 0.0 0.0 0.00 0.00 0.00 62 1013.7
20260506173800 12 217 0.0 1.6 0.00 0.00 0.00 59 1013.7
20260506173300 12 82 0.0 1.6 0.00 0.00 0.00 57 1013.7
20260506172800 12 226 0.0 0.0 0.00 0.00 0.00 61 1013.6
20260506172300 12 252 0.0 0.0 0.00 0.00 0.00 60 1013.6
20260506171800 12 311 0.0 3.2 0.00 0.00 0.00 62 1013.5
20260506171300 12 263 0.0 1.6 0.00 0.00 0.00 61 1013.7
20260506170800 12 114 0.0 1.6 0.00 0.00 0.00 62 1013.6
20260506170300 12 262 0.0 1.6 0.00 0.00 0.00 62 1013.7
20260506165800 12 346 0.0 1.6 0.00 0.00 0.00 59 1013.6
20260506165300 13 82 0.0 1.6 0.00 0.00 0.00 59 1013.5
20260506164800 13 278 0.0 4.8 0.00 0.00 0.00 63 1013.7
20260506164301 13 343 0.0 4.8 0.00 0.00 0.00 58 1013.4
20260506163800 13 92 0.0 6.4 0.00 0.00 0.00 56 1013.5
20260506163300 13 255 0.0 0.0 0.00 0.00 0.00 60 1013.5
20260506162800 13 243 0.0 1.6 0.00 0.00 0.00 61 1013.5
20260506162300 13 319 0.0 0.0 0.00 0.00 0.00 58 1013.5
20260506161800 13 260 0.0 1.6 0.00 0.00 0.00 57 1013.6
20260506161300 13 260 0.0 1.6 0.00 0.00 0.00 56 1013.6
20260506160800 13 247 0.0 4.8 0.00 0.00 0.00 58 1013.5
20260506160300 14 266 0.0 1.6 0.00 0.00 0.00 57 1013.5
20260506155800 15 46 1.6 4.8 0.00 0.00 0.00 54 1013.4
20260506155300 14 340 0.0 4.8 0.00 0.00 0.00 53 1013.3
20260506154801 14 348 0.0 4.8 0.00 0.00 0.00 55 1013.3
20260506154301 14 4 0.0 4.8 0.00 0.00 0.00 56 1013.4
20260506153801 13 337 0.0 4.8 0.00 0.00 0.00 58 1013.5
20260506153301 13 8 0.0 3.2 0.00 0.00 0.00 55 1013.6